GFSSW_2pvu_pres_084.txt.gz
Presure
122 122 129 127 153 156 141 126 135 138 134 130 136 149 150 149 154 131 141 133 126 119 120 125 115 127 117 110 123 121 132 124 124 119 148 134 120 149 142 142 111 130 120 109 118
179 161 131 124 130 148 127 131 124 140 137 137 132 135 137 147 158 157 134 129 124 126 124 127 128 117 100 108 106 114 145 121 133 132 146 118 141 146 130 142 131 111 111 123 132
208 261 224 210 122 141 136 132 140 154 147 138 139 137 134 141 146 161 155 137 140 122 124 128 127 102 123 105 127 110 146 134 117 125 135 138 133 135 145 142 142 108 110 106 115
209 209 225 239 201 127 123 165 137 119 156 132 138 139 138 134 142 150 164 140 144 125 125 128 128 123 124 103 111 111 121 139 130 118 127 128 140 139 144 131 114 140 109 108 111
203 203 257 221 216 169 132 135 130 145 130 133 132 140 150 141 139 142 174 162 123 145 138 131 133 132 123 131 114 122 122 117 131 135 122 125 127 127 142 134 137 135 142 122 119
208 206 197 223 232 165 214 126 134 127 142 142 157 126 142 146 150 147 148 162 157 166 155 131 130 136 129 131 125 119 126 123 116 139 130 128 138 133 142 142 139 125 139 141 119
191 209 209 266 279 279 240 244 187 135 130 140 148 159 121 137 143 150 176 163 163 160 153 141 133 129 127 135 130 128 140 116 138 115 111 132 129 137 136 139 134 154 132 141 151
217 205 211 187 183 285 262 236 198 199 265 228 140 150 154 125 137 147 151 143 161 193 170 138 130 130 133 132 136 140 109 109 125 132 124 143 148 137 131 126 141 137 139 113 137
177 188 242 285 278 281 279 270 251 211 206 271 211 145 145 179 140 133 149 154 150 188 172 161 135 129 130 122 134 137 115 117 110 132 134 137 116 158 129 128 138 148 135 136 126
220 191 242 182 287 293 280 277 267 261 220 259 251 221 142 128 159 151 124 147 153 167 193 229 192 146 127 139 128 133 118 127 113 108 132 113 140 151 131 128 123 127 143 136 140
205 183 234 277 274 174 282 271 268 267 250 227 179 260 149 138 145 166 123 128 148 142 189 187 239 171 139 125 121 122 138 141 117 132 124 131 115 141 138 141 136 131 125 140 130
201 190 197 207 279 230 279 267 272 260 261 256 209 262 237 167 212 147 136 168 131 161 142 173 208 205 171 137 137 131 131 138 130 134 126 129 124 137 144 108 123 133 121 127 142
220 214 238 206 192 271 258 266 259 230 255 249 232 258 250 233 235 188 153 133 156 147 166 164 177 223 170 136 141 110 128 132 130 128 129 131 111 131 134 115 110 145 139 123 137
204 197 207 252 256 200 265 260 258 251 242 252 252 252 256 245 203 233 203 158 178 130 152 162 179 189 229 173 125 142 130 139 131 136 137 135 108 101 135 127 136 122 128 141 128
226 235 217 263 260 237 250 249 250 256 246 242 241 247 247 251 239 242 226 159 146 179 126 152 156 175 218 227 143 155 146 131 131 123 136 111 135 126 127 135 129 154 140 140 119
258 228 225 238 233 250 246 240 240 233 245 257 240 232 242 241 254 238 229 230 197 157 174 130 154 154 178 218 203 152 156 138 131 138 130 134 126 121 129 132 134 121 133 153 130
195 249 218 252 249 242 241 247 244 244 245 241 246 252 245 243 247 255 248 224 226 164 149 183 129 160 156 194 221 184 149 148 138 139 135 129 133 142 141 126 134 132 125 143 121
213 246 246 253 249 242 239 278 395 377 434 351 359 256 252 252 242 248 255 249 228 232 163 152 157 129 126 154 203 223 176 150 146 143 139 142 127 129 140 133 159 115 126 120 130
206 252 254 243 235 240 321 336 326 298 301 321 342 391 420 253 254 252 255 250 249 247 161 168 163 168 132 124 158 213 219 168 158 150 145 157 121 127 128 126 117 135 129 131 124
257 251 241 235 236 272 307 293 286 289 343 348 330 355 357 364 251 258 256 241 247 252 253 186 157 163 141 136 125 149 211 184 170 166 158 150 138 107 141 144 132 139 119 132 139
243 246 232 231 240 298 314 285 284 290 347 339 324 335 328 314 350 256 250 253 244 239 251 254 166 144 138 148 157 138 159 100 187 174 163 155 146 144 141 137 138 137 133 131 144
251 231 229 231 231 327 304 320 342 292 294 301 311 297 316 294 326 311 249 259 255 243 237 252 256 157 156 139 134 162 158 155 218 191 168 157 156 149 143 145 147 141 144 147 109
242 230 229 227 224 302 285 312 329 285 282 283 281 302 297 305 316 285 325 262 250 244 248 248 258 255 167 144 164 138 159 179 146 214 206 194 169 145 144 149 145 127 153 130 135
235 225 223 226 226 315 340 306 320 288 279 277 272 288 275 298 298 282 283 280 299 247 243 239 200 247 251 112 146 182 132 142 173 151 187 213 209 195 152 149 153 140 141 158 107
232 226 229 219 225 268 330 301 297 305 281 275 267 273 263 268 292 277 284 285 296 311 311 310 246 244 240 253 97 148 145 143 136 156 161 130 203 221 192 176 154 145 148 143 144
226 223 226 220 223 281 337 307 294 309 282 266 263 275 264 268 273 271 281 275 284 313 320 301 304 244 245 166 235 142 146 134 140 165 146 102 135 178 201 143 186 175 168 158 151
224 227 221 217 224 281 328 321 293 289 310 276 265 263 269 266 273 270 277 268 275 319 283 315 314 304 249 255 255 240 210 147 138 147 152 140 106 103 155 181 199 216 199 177 161

GFSSW_2pvu_pres_087.txt.gz
Presure
123 123 125 120 123 154 129 129 137 135 141 136 154 156 148 152 141 121 139 134 121 127 118 123 113 108 110 123 129 133 138 133 133 122 126 120 134 136 142 133 114 124 132 127 123
215 127 127 123 119 124 129 152 152 141 134 141 137 146 143 151 153 147 138 148 136 123 127 125 126 113 104 110 122 128 139 126 147 137 125 134 135 135 139 126 107 110 118 121 122
210 124 130 233 190 137 133 125 210 149 146 134 137 140 139 145 147 152 158 143 146 132 122 129 120 132 115 110 115 114 127 119 132 119 145 124 118 132 148 145 124 108 110 118 122
207 223 213 216 209 221 225 124 123 172 136 133 135 136 143 137 143 149 150 161 136 150 132 129 134 131 115 122 115 139 118 151 117 123 146 138 131 130 134 129 141 117 108 118 110
193 186 207 211 210 225 216 135 140 123 136 133 128 143 143 140 134 137 146 155 161 149 148 127 131 111 118 113 124 123 118 139 136 136 120 130 129 133 142 115 124 141 122 153 109
193 198 193 199 201 207 208 218 261 202 140 133 135 146 143 135 147 138 143 144 165 164 154 122 129 131 107 129 119 126 116 120 137 133 118 128 127 142 129 158 134 121 130 118 115
199 199 207 206 196 217 247 208 270 256 152 131 137 150 134 133 135 158 137 184 145 158 166 150 129 129 134 135 111 103 117 120 121 116 137 147 131 132 130 143 138 132 145 136 135
194 195 194 184 205 207 196 216 199 270 226 212 126 131 149 139 135 139 160 141 144 151 181 154 151 132 132 139 138 110 114 119 113 115 120 119 127 120 135 133 133 137 111 140 131
183 216 176 197 209 202 218 208 182 270 285 240 207 135 133 144 141 164 142 154 141 162 162 180 151 152 130 138 132 110 136 123 119 130 112 124 133 146 134 137 125 134 142 122 121
199 203 193 224 187 206 278 194 231 291 280 265 225 209 156 164 123 157 166 136 155 139 150 168 161 177 150 127 137 137 132 123 133 119 133 120 127 139 169 139 125 133 137 134 104
195 209 189 188 258 223 284 205 316 171 272 270 230 210 153 268 147 135 161 151 131 157 138 170 172 160 156 135 133 134 110 130 132 116 115 113 105 141 152 135 128 118 118 140 137
191 217 194 212 204 248 201 280 255 278 276 262 264 210 201 222 186 153 127 136 146 129 152 138 176 170 167 149 136 129 136 140 120 128 107 126 129 134 135 140 139 126 123 128 140
200 183 215 191 201 228 210 271 265 289 268 211 263 266 218 203 264 220 170 140 148 142 122 162 159 169 171 151 136 121 136 138 113 120 114 117 142 123 119 133 137 134 137 127 126
175 198 214 196 206 247 214 263 258 269 202 273 262 255 259 231 208 258 167 151 145 155 146 126 170 162 167 212 150 146 132 137 122 108 131 146 155 132 115 137 139 136 136 142 143
226 196 275 199 258 251 246 256 255 252 265 256 263 257 255 246 222 258 244 145 157 152 162 155 125 189 169 186 182 143 105 142 137 138 144 124 107 135 116 140 135 134 113 118 147
210 208 248 253 253 250 248 251 251 250 251 261 250 251 255 243 251 235 254 233 170 168 138 154 151 146 155 203 191 248 166 120 134 133 128 132 112 136 126 140 162 123 123 151 145
210 242 244 256 249 249 247 243 238 237 244 250 253 250 245 252 241 229 252 249 229 165 154 153 139 152 149 131 176 230 182 166 136 129 129 123 124 148 114 119 116 133 128 136 142
200 233 248 247 248 239 234 232 232 236 238 244 245 248 255 240 246 246 247 253 244 231 164 196 153 168 156 157 152 177 230 170 132 142 145 127 129 122 123 109 120 130 143 133 138
199 259 249 239 237 234 234 236 291 372 351 365 291 253 251 257 238 239 253 249 249 234 229 203 164 173 152 140 166 153 86 177 159 146 149 120 115 129 125 132 135 131 112 136 136
203 259 245 231 231 228 235 279 309 318 309 305 308 326 300 249 256 246 242 248 250 243 229 230 204 165 156 175 128 179 170 218 235 152 155 119 140 110 140 135 129 132 140 113 122
274 252 240 226 230 229 229 318 294 295 301 286 296 342 359 408 251 263 250 243 250 256 242 228 229 199 191 172 159 124 151 177 221 212 163 132 149 101 141 128 117 118 139 147 147
255 244 231 232 237 231 230 320 290 285 327 297 315 340 330 322 355 250 250 246 240 243 256 252 224 228 201 178 148 167 119 153 153 220 191 156 156 150 124 127 141 145 143 157 170
250 239 230 237 222 233 288 310 287 290 293 295 306 323 303 309 308 317 250 242 244 244 243 251 246 232 222 194 159 166 175 122 147 153 221 198 157 150 150 139 155 146 126 111 141
243 233 222 233 222 230 346 317 312 324 285 283 283 279 292 282 286 307 347 246 242 235 251 239 250 245 230 219 194 162 152 174 131 136 156 211 189 120 160 150 149 136 149 139 120
228 230 227 220 222 228 352 316 301 311 281 276 272 294 299 282 285 294 295 293 249 239 240 250 245 251 236 138 227 194 151 152 165 125 141 147 145 183 179 174 161 153 147 126 120
230 227 226 223 218 227 302 324 288 290 284 275 263 272 276 302 285 294 277 286 281 250 237 246 239 246 244 237 244 222 194 158 154 142 164 131 159 214 206 179 168 102 151 153 147
227 227 223 223 216 225 285 334 308 280 304 275 262 262 278 293 270 280 281 277 264 288 287 230 236 239 255 246 222 244 211 159 178 153 158 155 124 76 149 205 179 170 160 139 144

GFSSW_2pvu_pres_093.txt.gz
Presure
218 223 217 143 119 121 135 130 123 136 125 165 143 135 137 143 139 133 134 121 122 124 119 115 114 118 116 132 134 133 133 143 139 135 122 131 139 131 124 109 114 124 123 119 119
214 212 227 228 180 124 121 137 111 115 131 132 168 145 128 143 136 150 135 109 128 123 118 112 117 117 129 114 133 134 119 132 139 152 118 127 117 133 130 122 115 122 120 127 147
184 207 216 224 202 171 123 117 120 112 116 129 132 170 145 143 145 134 156 135 133 116 123 120 115 118 125 118 123 129 139 142 118 124 119 131 119 137 112 121 109 110 116 124 122
229 205 201 204 207 204 216 130 130 125 123 121 128 129 165 147 137 143 152 154 124 138 123 123 123 115 115 116 129 128 114 168 174 134 146 124 123 140 134 129 152 114 111 122 124
217 236 208 200 195 216 208 196 216 166 139 130 121 128 129 162 159 133 147 148 143 133 127 131 127 122 116 116 131 117 127 128 153 135 142 132 130 136 130 124 112 133 124 112 121
208 199 213 219 205 203 193 216 209 225 175 135 137 129 147 138 138 164 133 148 145 146 130 119 121 125 124 110 115 143 122 121 126 121 130 134 135 135 138 131 125 105 129 119 104
211 203 209 194 208 210 217 208 213 210 207 143 141 144 137 130 149 135 176 148 149 150 149 125 127 128 118 127 116 116 125 141 126 126 129 125 129 130 133 130 132 120 142 127 129
219 191 233 202 210 207 210 198 203 217 236 221 222 229 141 143 134 157 135 178 141 153 152 126 126 134 128 123 127 119 122 116 134 129 139 123 126 128 125 125 128 140 138 147 147
206 210 199 251 214 236 222 206 209 209 214 245 232 213 223 147 152 150 143 135 152 152 146 144 130 132 122 130 128 126 112 114 117 129 134 138 131 132 125 137 132 136 143 132 130
195 220 213 232 229 204 252 228 202 220 218 223 217 226 210 220 149 134 155 131 138 139 147 146 148 131 138 119 128 133 137 111 121 122 123 133 127 140 132 167 139 137 130 135 142
204 240 242 250 206 221 237 239 226 196 225 189 216 250 236 204 146 147 128 130 138 138 129 145 148 148 131 132 146 137 143 112 113 125 124 125 124 119 138 122 131 137 128 132 134
203 216 237 228 212 227 213 239 217 214 215 217 223 210 234 218 218 162 150 138 131 135 141 142 146 151 151 135 144 148 136 120 132 110 117 125 138 149 160 154 146 133 134 134 125
233 243 255 238 217 209 232 228 217 215 230 213 207 220 260 289 200 218 232 154 140 125 134 140 139 149 152 154 147 137 130 117 125 124 121 120 133 108 129 137 127 160 135 126 125
218 200 236 232 328 334 214 216 236 211 296 281 191 239 250 288 221 225 253 204 153 139 150 132 140 140 141 151 145 142 141 138 128 124 124 125 129 131 131 116 126 135 153 138 126
199 239 258 329 329 304 314 297 240 269 261 271 267 259 255 241 269 272 258 224 151 151 151 156 131 145 139 141 151 153 153 144 143 122 113 126 117 125 124 121 136 127 126 154 135
281 236 279 269 301 262 252 293 284 267 267 260 263 259 253 272 268 201 208 252 226 179 135 133 123 129 144 139 140 153 159 154 148 133 118 122 122 124 138 129 136 121 119 157 144
267 274 265 257 253 271 265 252 251 255 253 246 253 244 240 261 290 207 198 200 233 227 149 151 130 128 147 147 136 141 147 155 162 147 133 124 103 96 134 145 135 137 137 128 159
300 268 274 269 264 259 240 241 244 248 246 243 243 243 234 243 281 246 204 195 218 215 224 156 139 148 140 153 158 134 142 151 155 140 155 118 132 119 124 123 145 126 130 131 116
280 278 281 255 256 243 240 224 224 237 242 240 242 238 241 245 255 278 199 253 250 237 213 158 152 150 135 137 155 153 139 143 151 158 151 149 142 136 124 130 138 105 147 138 144
294 276 274 252 240 232 217 220 234 231 234 236 235 240 244 242 246 262 273 253 250 234 209 219 226 189 152 147 143 125 103 147 146 177 163 150 139 126 135 115 102 123 129 130 124
285 270 259 246 243 218 217 219 228 225 227 226 237 239 238 246 254 250 263 259 250 241 227 205 227 217 186 154 156 143 107 154 139 157 146 164 156 154 117 133 140 138 105 129 122
272 251 241 234 236 227 232 233 231 230 326 329 319 330 241 245 248 250 257 263 250 250 231 227 201 232 211 185 151 129 169 124 170 142 154 163 175 156 94 137 132 124 142 132 112
258 254 239 230 236 235 232 224 256 366 336 320 308 305 294 338 252 251 249 252 264 249 245 226 217 203 225 199 176 159 150 165 150 140 155 160 159 166 127 112 147 136 122 123 136
257 248 234 237 226 237 226 225 367 327 323 316 305 309 310 321 339 252 253 254 254 266 248 237 217 214 203 229 201 198 148 154 163 140 140 143 118 95 127 123 122 122 134 138 140
258 252 235 232 226 237 223 235 325 302 300 318 307 298 296 308 339 351 246 254 263 252 262 248 237 216 203 211 230 200 190 152 151 143 117 154 164 149 159 164 168 152 154 123 129
258 242 235 230 233 228 226 248 251 296 316 305 291 281 283 307 317 329 324 250 250 262 248 256 244 233 220 215 243 229 214 161 158 152 122 158 146 143 143 115 165 168 159 156 131
251 244 233 229 229 229 226 242 242 280 307 291 284 274 292 293 295 298 308 317 247 249 258 248 254 239 238 221 224 246 227 214 170 153 151 142 159 141 161 145 159 162 171 164 151

GFSSW_2pvu_pres_096.txt.gz
Presure
211 220 217 163 216 181 142 129 130 126 139 153 139 145 138 131 141 127 123 123 113 117 120 122 123 118 145 134 142 131 126 114 137 127 119 134 128 127 133 121 127 138 138 142 114
241 218 206 208 226 134 188 140 127 135 126 138 157 144 146 136 145 140 124 125 119 123 123 112 120 113 120 120 140 148 154 136 139 138 127 116 133 126 141 123 121 119 126 137 130
226 224 202 215 208 226 219 219 132 116 125 129 137 174 144 129 139 141 136 131 126 116 122 126 112 117 117 121 120 106 127 146 144 135 132 118 134 140 122 157 123 108 122 125 133
204 217 234 223 202 215 212 219 139 140 119 113 120 133 167 143 139 139 144 134 134 121 123 128 120 112 118 121 129 132 142 155 141 130 154 133 127 138 124 114 137 121 120 123 121
184 199 215 216 219 225 198 210 208 139 132 119 116 120 134 160 145 134 140 135 135 134 115 128 118 123 122 120 124 139 123 137 136 160 141 128 130 136 128 128 139 151 118 110 124
194 199 184 209 208 224 222 209 204 221 150 142 127 121 122 128 156 144 142 143 136 141 129 127 109 125 122 124 119 136 140 128 150 164 150 159 136 134 136 130 123 106 123 138 125
190 192 202 226 210 198 223 217 221 209 208 212 145 147 126 137 128 136 151 140 144 152 139 121 132 115 122 125 124 115 119 146 134 156 129 133 141 145 143 132 125 139 143 110 142
195 180 202 192 202 215 196 203 220 220 199 222 211 140 142 139 129 127 143 152 136 143 150 115 116 130 130 123 123 132 129 119 122 131 132 143 121 141 159 133 110 137 143 143 142
170 183 204 194 227 218 234 225 245 226 220 220 222 209 186 148 133 127 125 144 153 139 142 150 134 113 130 126 125 126 129 127 125 128 129 142 136 125 134 136 139 137 122 136 137
175 196 199 214 218 218 224 211 234 249 228 232 226 221 222 211 145 139 127 128 138 152 139 145 146 140 132 118 133 124 125 120 111 116 129 133 135 135 134 150 133 135 134 139 140
187 192 186 222 244 214 227 224 226 232 253 221 242 219 223 231 229 140 141 141 147 137 154 108 139 148 144 136 133 138 125 130 123 115 120 121 130 139 148 133 136 129 138 130 138
200 209 195 223 232 273 248 223 231 235 224 242 246 227 220 222 226 234 149 129 136 150 139 141 145 146 136 126 145 133 138 137 135 119 122 129 123 134 119 142 156 153 136 130 132
197 200 250 251 221 320 301 301 228 236 241 235 243 231 227 221 223 221 217 155 143 144 148 155 153 156 146 153 134 135 119 133 137 137 118 113 118 139 138 135 131 133 140 146 140
208 241 219 317 358 345 342 328 245 240 221 236 245 240 232 220 200 220 239 218 156 131 150 133 144 158 155 148 151 143 139 145 141 129 125 117 123 112 140 161 166 150 161 168 139
201 248 278 303 282 271 272 318 317 307 222 227 244 229 220 225 205 219 224 243 224 143 145 153 129 140 139 151 145 147 153 144 144 145 145 123 126 129 141 112 114 126 126 154 161
224 242 306 291 276 267 257 260 291 300 311 220 220 225 227 222 227 220 214 226 215 269 144 131 156 131 148 138 153 149 148 150 154 138 140 120 127 132 114 122 137 117 125 145 129
223 278 305 284 273 269 272 263 260 271 283 214 201 208 221 212 244 225 214 263 254 204 239 207 133 145 129 140 144 151 146 146 151 154 139 126 125 119 124 135 136 123 127 119 126
231 317 299 280 263 259 259 246 244 247 248 250 253 230 254 219 253 252 221 211 285 211 205 228 155 152 151 123 143 139 137 148 145 146 150 138 138 124 122 124 120 137 128 139 140
227 317 294 269 261 253 246 237 234 235 239 249 250 249 248 248 249 257 212 234 280 263 195 244 192 150 156 118 117 136 141 139 143 152 155 147 144 140 127 115 134 120 134 123 116
276 290 279 251 244 239 235 224 225 228 230 241 242 240 239 239 241 247 205 223 259 279 254 250 222 229 155 137 149 131 134 139 139 143 155 153 155 149 124 118 127 123 127 133 131
227 284 251 252 235 235 236 226 220 219 224 227 233 241 242 241 240 241 243 248 259 285 258 220 235 225 221 143 146 155 144 132 142 141 146 149 154 158 118 147 123 118 113 139 122
299 274 265 237 238 238 228 223 228 231 233 234 233 233 237 244 237 239 243 239 257 283 276 239 245 215 226 217 140 130 131 155 133 147 142 144 148 155 158 156 149 130 133 115 105
283 272 261 249 241 235 231 240 232 226 249 375 364 254 241 237 240 241 240 247 245 262 278 259 248 241 216 217 192 140 133 155 124 127 145 173 142 151 153 127 116 162 128 126 135
279 263 259 249 241 231 232 229 223 263 338 326 333 323 327 270 238 240 247 245 247 258 273 222 212 240 238 222 229 211 152 136 156 131 147 149 166 139 141 149 158 122 154 120 132
270 256 247 244 236 232 230 226 251 283 317 334 328 326 323 320 316 304 244 252 250 256 261 267 201 249 245 226 223 233 209 156 143 136 142 151 150 177 158 141 158 159 161 162 126
269 257 243 239 236 234 225 224 259 241 311 336 306 299 301 304 306 312 349 249 252 255 256 265 262 253 251 241 217 223 233 152 158 147 141 152 130 134 181 174 144 165 161 162 174
268 256 245 237 234 240 223 229 260 232 270 297 302 285 283 296 302 320 337 351 238 246 253 258 264 259 251 244 238 216 226 231 203 156 149 155 154 129 138 137 167 150 165 97 153

GFSSW_2pvu_pres_102.txt.gz
Presure
200 213 220 229 234 206 176 124 134 160 121 124 155 142 139 141 134 122 127 118 127 120 148 129 124 127 137 147 131 112 120 144 126 145 125 111 112 148 127 120 113 134 131 119 145
195 185 201 209 221 217 204 218 128 135 159 122 124 156 143 140 131 135 130 126 121 119 131 136 134 129 148 141 137 137 127 128 142 139 120 124 142 114 130 120 111 128 126 137 124
190 196 193 191 212 212 229 197 213 137 212 140 125 126 147 144 136 134 137 132 124 125 122 126 125 126 139 136 138 149 127 147 125 131 117 120 119 108 117 126 131 125 124 123 146
183 186 185 205 205 206 216 223 200 209 224 231 142 126 132 144 149 149 137 136 131 129 127 116 152 124 125 125 144 137 129 156 143 114 135 139 117 118 124 125 126 145 129 136 127
177 173 189 189 192 194 202 224 218 235 205 227 204 146 125 131 145 148 154 137 136 133 129 123 124 124 124 118 127 135 147 148 146 129 125 143 116 122 149 130 139 133 124 149 148
178 177 175 175 200 192 208 203 205 215 233 200 234 207 132 126 137 149 145 150 136 139 130 126 127 126 120 128 118 135 140 141 132 137 129 129 145 123 135 140 141 126 146 132 151
171 165 187 191 182 184 196 197 196 217 206 228 226 235 128 132 132 142 147 143 152 136 130 133 130 120 130 123 122 114 147 150 156 149 135 148 157 145 134 128 146 142 148 152 136
176 179 184 174 170 193 204 190 200 211 221 215 229 244 223 129 125 126 143 148 142 153 127 128 140 131 126 130 122 124 118 130 140 139 165 136 167 138 141 113 116 129 127 146 147
164 171 179 179 196 202 213 202 215 205 211 211 227 237 233 221 129 123 124 146 149 142 148 128 133 139 130 128 131 129 137 142 137 144 138 142 155 155 143 123 142 140 109 131 127
170 173 173 180 189 235 219 255 267 282 244 229 250 235 252 234 180 127 123 122 147 149 143 151 139 136 136 128 126 128 137 147 143 129 131 158 137 146 164 114 149 122 136 111 144
171 165 170 216 232 211 269 245 304 276 268 258 243 218 246 254 244 223 129 124 122 145 135 142 143 147 125 138 132 137 141 117 136 131 147 144 141 119 129 131 129 138 143 134 116
162 174 191 204 239 300 259 332 334 314 246 265 230 252 255 246 241 232 139 130 125 123 152 140 147 140 149 137 141 128 130 119 122 126 120 130 144 126 124 142 150 129 128 144 138
173 176 188 219 252 313 333 321 314 307 306 354 346 249 256 258 236 244 225 141 129 125 124 144 141 148 141 148 143 125 134 115 119 123 127 131 124 131 129 143 128 142 140 132 130
178 201 207 230 349 335 313 296 292 284 284 325 323 304 255 250 227 261 236 209 142 133 124 134 146 139 143 143 147 162 142 133 117 119 123 126 140 132 132 127 138 131 146 149 140
190 186 219 244 335 304 289 284 279 276 271 312 310 304 239 245 250 249 240 231 151 142 133 119 145 123 140 140 143 144 77 130 131 136 146 129 123 147 121 139 131 117 139 121 131
179 210 219 247 310 286 268 267 276 262 267 291 305 296 277 243 256 250 251 233 210 187 141 133 136 129 140 143 149 145 147 147 148 138 122 120 122 118 132 130 121 118 140 132 134
198 195 228 334 302 266 262 259 262 261 254 286 296 311 231 229 230 233 230 243 229 210 224 143 133 135 124 135 143 133 103 144 147 153 147 128 124 107 132 113 131 134 113 128 143
184 187 230 317 277 258 252 243 250 248 247 257 282 297 292 286 218 229 245 241 228 218 217 221 144 131 134 126 128 127 146 146 135 149 153 146 126 115 113 113 100 119 136 132 143
199 214 221 292 274 262 245 244 236 239 240 239 256 284 284 281 233 232 239 231 247 238 213 223 223 145 139 134 145 150 138 137 137 152 140 134 150 149 142 122 120 135 134 141 141
190 200 281 297 276 257 253 238 238 238 228 234 238 247 274 309 241 225 224 227 235 237 231 217 201 223 152 144 138 130 148 141 142 141 143 143 155 156 143 132 133 116 146 154 121
189 209 243 292 280 271 247 248 246 237 231 228 235 240 244 265 292 278 221 221 230 223 251 214 216 224 205 146 147 133 134 128 145 145 147 147 153 151 122 147 108 126 125 157 134
189 210 222 289 267 263 255 244 238 241 246 242 233 230 241 252 252 279 219 219 220 233 246 243 215 219 216 207 145 143 130 146 148 150 140 143 142 151 149 148 157 124 130 149 137
190 212 204 290 265 258 246 249 238 237 239 239 239 250 241 238 256 250 263 237 214 222 236 242 218 211 217 217 227 145 146 140 145 149 147 146 154 152 155 152 150 151 162 140 135
190 198 209 259 267 251 244 241 249 235 226 230 291 287 262 252 245 252 256 254 213 214 222 231 241 218 210 224 216 229 162 143 142 125 164 138 142 159 142 151 155 152 152 156 139
200 202 209 218 274 255 248 242 236 227 222 235 265 259 249 353 262 252 252 265 255 217 193 225 234 238 214 225 214 218 222 162 150 150 132 162 155 142 151 154 146 151 156 153 151
201 211 201 216 269 260 251 238 235 230 236 265 261 296 251 338 356 300 245 252 261 254 251 219 233 230 220 227 207 223 219 219 163 146 147 139 134 156 134 140 146 145 151 153 158
197 215 208 211 263 255 250 244 235 223 236 255 260 290 292 311 315 326 333 257 247 258 254 209 212 223 232 227 215 206 218 215 222 173 145 148 141 140 147 117 134 142 165 153 150

GFSSW_2pvu_pres_105.txt.gz
Presure
205 200 196 202 218 237 209 226 196 123 129 124 125 142 135 136 131 132 125 124 130 138 138 141 133 134 127 131 131 139 143 151 115 144 122 153 133 111 101 132 131 129 133 168 190
192 197 204 194 200 206 221 242 217 209 134 137 128 126 141 135 135 132 126 127 124 125 135 133 141 130 137 124 134 128 140 130 138 120 117 148 132 129 129 119 131 131 137 132 197
181 188 194 193 194 190 214 213 239 214 120 133 146 127 129 141 139 136 128 121 129 134 118 156 125 132 134 142 112 113 132 110 140 135 123 125 121 142 127 144 156 125 130 140 141
172 174 188 186 189 189 197 212 221 234 215 120 136 129 126 126 142 142 136 128 132 129 122 143 144 140 140 144 139 129 125 117 131 136 137 121 124 119 119 146 142 146 130 145 167
177 179 172 171 188 181 195 198 203 212 233 234 202 167 132 125 146 136 157 135 124 134 126 124 125 129 127 145 127 138 154 134 140 127 134 118 115 131 122 120 120 127 157 151 153
169 164 163 173 165 176 178 185 211 188 201 210 238 231 195 142 127 139 133 147 135 123 133 131 122 126 132 130 138 151 125 139 159 113 122 147 121 121 141 124 141 148 124 150 148
163 162 162 163 174 187 171 192 183 194 169 204 215 239 221 226 129 132 149 145 137 136 119 134 134 128 127 124 132 130 130 131 137 135 138 122 149 117 132 130 140 144 147 131 130
155 159 151 166 161 162 179 174 196 200 213 183 205 213 239 227 197 129 133 151 143 137 139 124 133 134 124 123 122 118 148 140 132 129 123 130 148 143 121 136 141 138 147 145 146
146 143 153 150 171 168 182 191 183 215 243 193 222 226 221 237 233 136 127 128 147 155 137 138 133 132 132 126 131 122 150 137 146 157 127 154 146 179 117 116 142 141 130 139 148
141 154 158 172 161 173 193 206 206 271 303 244 280 217 213 223 238 153 139 133 149 139 155 140 139 139 130 130 131 123 117 114 150 131 133 147 138 179 132 151 141 133 142 129 128
143 145 154 164 180 178 214 282 359 349 337 338 267 256 273 229 226 250 165 132 133 152 134 155 141 133 137 136 130 158 132 122 143 145 157 124 136 159 160 114 146 136 127 131 139
157 142 157 177 171 201 205 365 344 338 332 328 323 300 295 275 234 239 236 133 124 134 152 142 151 141 133 133 136 161 130 125 147 143 139 139 131 158 151 131 130 141 135 127 118
163 151 167 183 187 203 326 325 311 306 311 324 324 251 271 261 216 226 249 232 131 123 129 152 145 150 143 138 139 139 131 131 134 125 138 127 137 141 128 131 144 125 129 132 143
153 164 181 173 219 332 318 295 285 287 291 294 303 322 323 258 226 251 246 244 222 129 139 129 154 140 150 143 140 137 138 131 155 141 127 140 132 125 128 135 143 132 144 154 146
161 168 172 193 234 328 288 276 273 281 270 277 282 303 338 254 248 246 243 245 232 145 131 146 137 147 135 148 144 143 140 132 157 125 133 123 145 126 124 119 141 137 123 147 162
161 169 175 197 265 306 277 273 260 267 265 264 274 301 286 247 241 239 222 244 232 229 91 128 137 132 151 139 144 142 145 148 130 150 113 126 131 125 129 134 128 135 134 143 125
164 172 182 204 323 299 273 259 246 256 258 257 270 287 295 291 215 236 230 242 234 188 225 117 151 130 129 148 131 138 144 145 120 136 139 120 124 140 123 131 137 140 125 131 123
165 174 178 236 266 302 275 260 238 237 239 245 259 274 290 297 270 240 239 246 233 233 227 147 141 127 134 126 150 133 134 142 140 142 147 127 135 134 115 135 121 142 126 129 138
165 173 175 212 250 294 277 259 250 240 243 231 240 258 287 288 281 268 236 240 228 243 231 217 146 141 137 149 148 146 131 152 143 145 146 134 140 149 140 132 128 138 125 132 132
169 170 203 218 234 289 285 257 246 241 239 227 233 237 260 297 286 259 240 232 241 229 242 221 191 148 140 131 125 125 130 145 141 147 145 137 149 137 131 133 113 126 104 136 116
170 170 203 210 224 290 265 268 250 244 248 234 227 230 239 259 289 291 228 235 243 225 249 231 219 219 141 141 138 128 150 145 144 153 144 140 145 150 154 140 125 134 114 135 138
173 171 215 219 226 288 268 263 248 253 249 244 249 231 231 237 252 298 257 229 229 244 236 237 223 217 207 143 145 141 137 124 136 133 141 151 146 149 118 146 154 130 110 138 120
171 178 211 199 202 229 269 253 250 246 239 247 241 238 245 237 238 250 282 240 221 220 245 234 237 218 207 182 149 82 134 132 127 156 132 145 154 152 155 129 110 154 135 132 140
170 188 209 210 214 226 272 258 260 251 246 239 230 228 231 263 253 243 254 270 256 218 224 244 235 232 206 216 195 158 145 145 141 136 141 130 142 150 154 149 153 155 137 158 122
177 199 208 207 217 228 265 263 253 246 235 236 229 239 276 271 276 257 249 257 254 226 226 230 228 237 236 206 209 210 163 149 144 143 142 135 131 141 147 149 152 149 154 139 141
173 205 197 199 218 213 225 264 254 258 242 228 231 251 273 258 262 261 269 252 258 271 218 222 222 231 240 231 209 214 211 167 146 146 143 145 134 142 158 153 158 150 154 149 129
210 202 204 200 216 208 233 266 261 250 239 231 248 271 271 316 323 244 362 264 254 260 270 248 220 224 234 236 241 215 214 219 170 164 155 141 149 137 132 136 142 142 141 155 151

GFSSW_2pvu_pres_111.txt.gz
Presure
193 191 195 202 200 196 204 214 224 246 202 125 120 125 129 140 142 142 131 130 132 127 132 143 135 130 130 125 141 143 132 123 119 124 119 132 130 109 151 134 136 154 135 132 129
184 179 181 190 193 192 193 199 202 221 233 182 126 122 126 135 149 130 146 139 132 134 129 137 129 144 132 124 138 124 134 147 128 123 135 132 132 138 133 123 155 140 142 129 127
172 171 166 189 180 169 187 184 202 198 213 227 126 128 126 125 136 153 131 132 140 124 130 133 139 144 113 127 130 137 120 147 118 121 126 123 138 154 140 147 135 148 154 145 122
170 164 153 180 167 186 178 170 190 164 196 215 224 183 127 126 150 144 157 130 142 132 136 150 131 127 116 134 120 119 129 137 132 150 119 124 128 117 124 155 150 157 148 151 150
161 165 163 164 154 156 166 169 175 184 186 193 206 221 167 131 125 138 150 141 132 123 137 128 126 134 138 127 126 147 125 134 148 124 122 125 126 145 123 142 146 147 145 141 146
159 159 156 148 163 161 154 168 160 175 195 173 193 206 189 198 135 128 127 144 141 129 133 137 131 127 134 137 129 129 157 129 112 136 129 114 120 136 145 149 140 138 135 149 134
154 153 166 160 145 149 158 145 175 169 189 188 164 169 192 184 162 127 156 129 137 140 126 124 140 139 137 139 127 132 134 131 117 113 130 130 117 115 139 128 152 135 151 129 148
158 154 160 150 165 190 210 175 165 160 184 182 183 168 168 189 171 165 129 146 133 141 135 133 120 140 149 131 123 133 131 117 139 161 128 138 150 126 134 141 146 145 142 146 138
157 166 147 180 165 166 188 167 192 179 175 180 182 181 191 178 194 170 140 133 137 137 142 123 139 125 136 140 139 119 158 149 154 135 132 125 140 146 114 139 116 149 148 139 141
156 172 168 179 182 185 218 161 185 175 181 183 189 191 189 188 148 193 184 144 134 147 145 142 124 141 137 145 148 137 145 135 128 147 135 124 140 140 127 117 136 143 145 134 136
175 171 135 168 227 197 174 164 182 180 181 192 245 359 385 336 240 196 221 143 142 137 148 150 137 126 128 144 144 129 147 159 133 123 151 139 141 129 150 130 137 147 144 147 130
164 163 166 166 204 180 193 184 174 179 198 317 312 323 337 210 348 338 237 225 172 145 140 146 147 134 126 124 134 143 127 145 146 135 146 147 130 143 146 138 138 109 148 146 121
164 151 170 214 208 206 176 169 183 190 306 283 293 302 315 335 333 332 311 235 221 149 139 154 146 150 127 130 120 122 135 148 153 162 146 150 143 123 135 124 133 112 132 126 146
164 148 193 148 209 163 179 178 185 248 282 270 284 284 305 325 318 330 309 235 222 169 150 140 148 149 146 123 130 130 130 144 150 133 135 153 147 154 138 148 151 130 142 139 137
155 159 202 206 161 170 173 185 186 296 264 253 265 275 296 312 306 313 305 270 232 227 142 153 139 142 149 139 131 126 133 131 154 129 129 166 156 155 149 145 139 137 116 126 117
164 184 210 206 174 170 174 190 206 295 265 250 262 277 281 297 315 295 325 267 239 230 228 148 158 138 145 149 138 139 124 129 137 136 134 122 131 151 151 140 148 151 138 135 139
175 212 212 200 182 172 177 182 269 296 276 243 243 257 276 286 300 292 332 261 248 226 221 214 150 137 155 137 148 146 132 123 115 132 139 144 136 133 148 133 149 132 144 152 140
192 220 205 189 166 164 178 183 247 303 279 264 237 241 268 285 286 313 274 282 238 237 212 232 157 138 141 145 147 147 146 138 139 123 140 120 157 149 155 135 161 133 150 135 151
208 189 194 165 177 177 181 228 232 279 283 267 255 234 241 278 275 307 300 271 238 243 216 224 248 154 145 138 165 155 146 147 142 133 106 126 134 143 142 140 128 145 121 128 132
205 208 173 168 179 174 196 218 230 239 281 265 261 242 230 260 274 272 304 270 246 244 240 225 237 169 157 136 141 158 138 130 119 144 142 141 122 128 159 116 137 130 129 128 132
212 191 163 168 170 179 217 217 225 230 281 272 261 267 231 235 265 270 280 243 257 238 238 220 231 245 168 147 129 135 147 142 137 127 144 145 142 155 163 124 128 138 134 133 120
188 175 166 169 181 193 215 213 215 223 243 272 272 250 257 229 241 264 277 279 238 239 222 216 217 229 218 163 140 132 125 129 146 149 142 150 150 136 129 151 103 126 131 131 134
184 159 170 173 185 199 220 208 205 209 240 280 268 253 256 252 229 244 274 278 277 276 244 217 214 217 236 185 167 105 139 140 125 132 148 144 98 133 154 141 122 120 128 124 123
161 171 166 184 189 199 209 205 206 207 217 242 271 264 242 246 248 238 244 269 280 272 256 250 217 218 226 232 175 170 125 116 136 130 140 128 147 90 155 147 160 126 133 123 112
160 168 165 187 188 194 205 204 197 197 209 222 278 260 251 242 243 241 247 243 266 290 272 252 238 226 217 237 224 169 158 147 143 138 130 107 137 152 151 158 101 111 155 135 128
164 162 179 188 193 200 192 206 198 193 206 219 243 259 247 235 239 245 240 245 241 269 286 263 252 237 218 225 233 230 172 154 148 142 140 152 137 126 145 125 136 164 97 163 150
166 167 178 188 196 198 201 180 202 202 199 213 231 274 246 287 292 285 297 261 267 250 268 278 240 252 217 213 234 237 195 172 158 147 156 151 131 139 142 131 148 171 136 150 136

GFSSW_2pvu_pres_114.txt.gz
Presure
190 191 188 198 194 193 193 195 208 228 245 237 172 126 127 135 157 138 136 152 160 139 135 125 136 147 123 129 132 120 132 122 140 111 128 110 123 138 137 141 142 143 142 163 134
178 176 176 168 181 181 175 185 187 199 216 236 233 122 125 128 137 150 150 130 154 132 136 142 124 131 127 122 134 152 138 121 116 138 138 117 142 129 148 147 152 133 135 154 159
172 165 160 167 172 165 168 184 175 192 197 206 228 247 125 126 132 135 133 138 130 153 160 149 141 148 121 136 128 150 163 141 150 163 130 131 134 132 141 156 145 146 151 147 149
170 169 170 179 163 170 169 169 194 173 190 183 197 225 245 127 138 138 132 132 138 127 136 138 142 134 138 130 135 138 157 160 137 152 150 137 128 147 125 144 143 144 140 147 157
166 161 164 162 175 163 162 184 192 185 179 184 193 191 217 128 129 145 139 153 125 135 127 139 140 136 146 120 130 122 137 133 146 125 126 126 120 126 148 129 139 147 135 151 143
156 157 162 154 168 151 169 174 174 180 179 183 182 185 190 206 129 131 140 143 139 141 136 128 133 137 142 133 138 129 150 143 117 142 134 136 136 118 132 139 128 149 128 151 145
174 169 153 163 164 141 172 154 177 166 180 172 159 174 179 184 203 129 132 143 152 137 132 131 135 131 128 127 148 138 144 147 118 128 137 126 130 119 134 143 131 147 125 147 119
167 165 168 192 180 174 184 165 163 203 189 152 178 174 173 173 192 193 132 133 134 155 131 144 139 134 126 134 137 134 149 138 131 130 143 128 119 116 140 122 147 146 136 139 119
169 162 182 187 177 154 167 192 230 175 182 157 173 203 160 182 189 200 131 135 151 141 141 130 133 134 153 130 127 117 137 146 148 116 141 144 136 127 129 139 118 145 140 132 120
178 161 189 193 169 154 182 193 163 197 169 174 181 182 178 185 178 193 184 190 138 135 148 139 129 139 138 133 132 131 132 128 156 127 148 142 140 148 120 147 146 144 135 135 129
152 190 184 174 142 167 184 153 207 198 172 172 178 181 190 198 169 198 125 199 173 141 143 159 138 132 126 144 137 127 148 132 148 152 139 143 131 137 118 123 146 126 132 141 114
187 184 192 164 164 160 219 163 170 197 189 187 184 229 307 315 218 259 220 162 185 173 139 148 149 130 144 124 144 134 129 138 149 147 155 149 139 147 139 134 143 147 117 145 148
187 176 157 163 177 169 215 215 173 184 194 206 311 295 295 309 244 200 373 288 217 152 109 157 146 137 130 134 144 146 147 140 168 152 127 151 129 132 133 152 133 138 148 147 133
183 156 157 168 176 216 212 163 174 199 205 310 285 272 275 291 312 331 315 347 278 227 142 142 150 150 141 133 143 132 142 139 146 155 138 144 126 144 151 143 142 112 143 142 124
173 160 163 174 226 180 174 173 195 191 255 290 276 259 257 292 308 330 331 335 317 235 172 143 146 146 149 139 132 144 130 133 150 137 145 144 147 146 149 137 136 137 136 136 140
170 211 207 190 205 203 189 187 190 219 252 303 281 253 251 276 300 319 314 319 315 271 219 135 146 136 141 149 138 135 131 142 136 140 147 176 148 167 143 132 148 154 130 132 139
207 219 185 213 201 185 173 182 192 230 233 289 273 267 244 252 287 312 298 310 305 287 223 221 170 150 146 145 146 140 137 113 126 136 136 160 135 147 150 149 157 154 139 131 132
179 250 228 203 192 165 171 181 224 224 224 269 287 259 251 246 277 298 296 310 300 281 243 185 233 132 144 147 142 144 143 141 130 136 141 148 165 120 130 159 142 155 131 139 136
234 226 211 193 163 177 173 199 225 216 219 231 286 275 260 241 263 286 295 294 304 282 263 229 224 182 151 139 147 149 150 147 143 140 138 122 126 123 120 157 154 153 142 131 143
260 217 176 193 154 175 174 198 209 217 211 218 282 282 273 244 249 275 301 283 310 288 270 251 227 226 166 136 132 143 143 153 146 150 144 137 118 138 148 129 153 144 143 130 132
232 195 169 164 161 170 181 201 205 208 209 214 224 290 270 265 240 263 269 297 318 293 256 244 225 218 176 140 153 86 145 110 92 149 154 144 146 143 128 148 142 143 173 125 140
221 174 159 161 170 169 186 199 206 192 210 208 218 267 281 256 245 242 269 279 290 310 251 243 226 189 223 111 144 149 152 138 128 137 150 152 148 137 126 132 150 138 155 134 136
209 166 167 162 171 173 184 195 206 207 207 214 209 222 285 267 256 236 250 277 284 310 252 244 236 218 212 189 133 140 144 138 131 160 127 145 155 156 140 118 127 146 147 143 135
186 159 165 163 165 178 181 194 206 200 202 199 208 215 250 270 259 255 237 259 274 278 306 253 236 226 214 220 176 151 130 154 138 140 150 148 140 115 151 136 135 128 166 140 126
153 155 165 168 167 181 183 198 205 197 200 199 206 214 215 278 256 252 249 241 261 278 260 285 232 235 214 217 228 173 167 159 118 121 146 150 140 144 152 142 133 115 127 127 127
156 168 167 170 175 182 183 195 194 202 201 211 200 208 209 237 268 251 248 253 244 261 288 277 281 235 241 209 226 190 177 136 157 147 162 142 134 148 144 148 138 142 118 109 141
164 172 172 178 180 183 185 191 190 206 198 207 200 202 218 221 273 262 309 311 254 250 260 283 252 240 243 241 222 227 181 178 167 165 153 139 131 136 136 146 156 133 135 122 151

GFSSW_2pvu_pres_117.txt.gz
Presure
186 180 183 181 196 189 188 193 193 206 231 215 225 123 130 134 134 131 140 155 150 137 128 142 115 142 138 130 136 133 139 132 115 137 102 126 142 150 149 148 150 153 170 184 170
173 168 165 176 180 176 178 178 179 194 201 215 234 219 126 129 141 147 132 136 152 134 138 147 126 138 128 121 128 138 120 113 123 116 145 135 146 148 133 143 146 145 152 165 170
171 170 179 163 185 159 165 183 180 184 185 190 203 224 164 130 128 138 155 141 144 158 131 140 134 143 125 141 127 136 126 145 133 139 146 141 146 140 137 137 140 149 154 159 160
167 163 171 173 178 165 182 162 158 185 184 183 192 199 220 146 128 139 134 128 136 152 162 138 141 132 126 127 132 152 136 145 129 142 126 145 137 138 131 131 139 141 143 153 154
170 174 165 156 163 163 172 169 182 188 174 183 186 187 194 220 129 128 137 154 128 132 156 143 127 141 133 128 130 138 142 119 161 134 128 132 147 127 132 126 129 139 142 151 146
169 168 177 168 159 171 167 177 160 187 158 186 181 193 189 204 210 127 129 141 154 123 138 146 140 137 150 134 133 128 111 146 122 140 157 128 137 148 133 125 146 147 148 138 152
168 170 168 164 169 172 189 151 180 185 164 182 163 214 181 191 200 220 131 124 143 143 120 149 148 145 141 138 137 145 114 142 142 151 135 140 133 138 140 129 137 139 142 149 139
158 165 167 188 180 178 193 144 179 150 190 164 187 175 167 177 185 156 134 133 148 152 137 126 136 128 142 140 131 138 140 135 135 163 142 135 131 134 122 135 139 136 137 131 148
165 163 178 176 157 194 196 167 149 191 211 152 193 160 168 174 192 188 195 159 143 137 155 130 139 132 131 132 145 138 138 147 133 127 148 123 115 147 130 143 134 133 131 122 147
173 169 173 190 201 174 148 159 174 189 231 178 167 167 164 167 185 188 191 198 138 137 136 143 133 137 139 137 139 136 148 135 153 160 132 146 122 118 138 134 135 134 134 119 122
170 164 190 201 156 164 164 167 190 231 175 149 171 171 180 170 176 173 184 193 138 134 153 154 145 143 159 138 112 136 134 132 113 162 114 138 142 131 139 118 141 139 123 119 130
163 164 191 179 175 162 168 183 199 189 202 161 160 155 186 177 161 199 180 204 195 179 131 151 165 140 143 141 134 141 138 139 149 132 139 163 141 153 119 137 139 121 131 135 123
183 183 155 196 188 205 221 188 183 204 172 167 204 312 246 310 249 225 199 185 204 193 128 137 144 144 138 133 146 146 142 139 144 147 120 144 135 139 136 120 136 134 147 129 122
143 149 165 189 181 208 203 216 212 199 149 238 251 314 311 291 290 282 293 301 206 199 204 143 141 135 134 142 134 141 145 144 141 145 144 150 145 133 147 140 127 148 146 147 147
188 170 173 201 246 186 213 204 172 173 189 236 238 285 295 291 272 271 304 321 261 194 207 162 138 147 125 148 144 135 138 138 149 146 129 145 154 140 152 132 149 134 138 144 140
156 168 192 255 210 217 159 199 165 177 218 228 232 270 291 283 273 259 305 338 333 272 199 217 190 138 157 139 144 140 134 142 133 150 142 140 157 149 156 136 147 129 139 129 136
164 182 214 258 228 198 151 163 181 180 218 207 221 236 287 278 274 252 297 320 320 331 199 224 209 168 138 163 142 142 139 139 146 151 152 141 136 137 137 140 142 136 133 129 139
191 239 201 245 209 197 153 162 171 181 214 216 225 224 285 279 273 250 295 309 310 311 316 195 196 207 178 146 152 145 144 144 134 153 126 146 139 158 143 134 144 120 139 131 129
180 241 236 222 196 173 158 169 170 184 209 214 211 215 234 286 272 250 292 298 295 306 320 314 197 232 172 155 114 136 148 143 144 131 154 157 122 127 157 140 150 145 150 152 139
245 242 236 214 200 148 162 176 169 180 206 209 212 207 223 281 270 262 275 291 291 297 307 310 280 227 209 179 133 136 146 142 142 141 139 136 163 118 125 159 145 141 145 152 137
227 242 221 205 193 159 166 192 167 184 197 209 205 202 217 223 277 264 249 284 297 284 301 303 290 231 211 91 175 144 146 131 150 151 144 139 144 133 155 153 129 157 158 148 137
251 233 218 203 154 161 165 174 181 180 197 202 207 211 207 219 251 269 258 261 285 277 299 297 287 267 217 204 170 141 132 143 137 153 151 150 120 125 155 137 130 131 131 145 145
212 200 213 184 155 162 167 171 180 184 191 192 210 201 207 217 219 276 261 252 279 287 314 297 208 267 110 204 154 184 142 146 132 127 144 153 147 120 98 124 158 142 129 139 148
213 197 190 171 160 167 171 178 181 187 194 196 200 210 207 214 214 225 269 262 247 279 290 299 291 269 216 208 206 184 184 136 143 131 142 94 152 155 127 124 125 122 124 126 138
199 199 161 157 162 172 176 180 185 192 193 195 193 205 199 207 215 220 241 260 254 250 285 286 292 275 255 207 208 207 178 91 137 139 131 142 126 146 145 136 125 126 120 120 149
187 158 159 164 174 179 182 186 188 189 192 193 195 200 208 217 211 220 223 271 251 254 253 285 297 288 264 254 207 207 196 172 150 135 102 123 130 135 150 140 130 130 133 123 148
159 167 172 179 179 186 189 197 201 201 199 199 199 199 203 216 205 219 220 284 274 254 256 258 279 292 268 248 212 210 210 207 172 155 132 148 146 135 152 143 147 136 138 134 132

GFSSW_2pvu_pres_123.txt.gz
Presure
137 171 172 182 183 172 181 187 184 197 204 216 232 237 157 129 128 132 152 146 147 143 134 141 126 140 130 131 139 142 131 114 117 111 125 135 142 141 147 158 155 174 176 151 235
183 184 186 168 168 172 169 178 191 183 179 203 206 225 235 165 124 132 134 141 145 147 144 141 137 132 140 141 119 126 150 134 118 148 145 128 146 147 138 145 153 165 200 239 242
178 180 180 179 182 176 164 162 176 161 181 181 191 202 223 208 193 125 141 149 131 152 141 147 144 122 134 135 145 127 145 107 120 150 126 156 147 142 135 142 152 158 186 241 255
179 169 163 176 171 165 178 184 163 167 168 179 176 194 195 216 230 157 128 139 158 150 140 151 150 143 139 137 124 137 142 116 129 147 130 154 149 140 138 131 151 152 181 217 249
176 180 181 174 171 169 177 173 184 164 169 166 171 171 183 197 213 234 124 126 139 139 143 154 152 141 145 145 131 144 125 136 122 121 136 138 145 134 137 150 139 159 164 160 176
176 169 173 177 160 162 166 171 160 186 165 155 169 167 183 181 193 211 229 124 125 132 132 150 143 142 140 145 144 139 137 142 134 149 135 143 136 125 147 151 145 144 144 219 180
172 166 175 173 174 163 178 180 193 159 166 186 163 169 163 186 181 191 209 224 133 139 157 146 138 150 147 137 147 139 127 129 118 132 119 147 130 113 138 135 151 144 151 179 160
169 177 171 176 180 163 181 175 192 193 188 193 173 210 170 172 198 187 194 213 217 129 125 154 145 142 160 140 135 141 153 149 119 113 137 149 143 149 142 134 142 160 143 159 173
174 174 165 174 175 173 174 182 183 187 182 173 210 169 172 163 188 174 184 195 221 200 139 129 145 149 161 148 140 144 148 139 153 143 145 148 145 150 144 138 132 124 151 146 141
171 178 173 174 179 171 178 195 185 164 194 167 158 185 179 189 175 211 180 183 199 228 151 134 154 145 142 156 145 139 133 145 125 148 132 139 150 151 143 139 138 132 116 146 146
169 174 176 184 166 174 193 154 178 192 208 151 160 146 223 220 189 191 237 167 195 205 230 151 131 163 142 150 157 143 149 121 151 143 142 155 131 151 139 142 138 133 128 132 140
188 181 176 193 198 178 161 197 168 183 178 201 207 215 208 206 151 255 202 219 216 187 223 230 158 127 163 139 159 147 133 151 161 160 136 135 142 131 153 144 135 136 136 138 143
194 194 202 202 207 174 164 177 176 200 248 229 213 200 179 176 141 178 219 222 225 187 215 235 237 140 126 161 132 146 148 133 111 140 130 130 150 130 139 138 130 132 135 130 132
190 198 222 220 197 194 207 197 192 262 235 207 200 155 124 173 148 249 145 171 326 187 184 211 238 187 134 130 161 159 123 122 143 161 134 140 128 126 136 146 144 141 136 140 130
194 210 198 203 136 205 203 173 267 238 219 209 172 179 162 172 215 237 257 326 163 257 83 189 203 244 178 135 131 149 162 157 153 138 142 133 117 138 127 132 150 145 138 129 141
195 194 194 203 195 192 249 256 249 226 213 196 180 178 181 193 211 236 239 325 306 245 179 188 170 209 225 164 134 119 146 130 138 145 118 141 158 172 144 148 132 144 137 140 135
197 193 193 197 210 237 251 280 232 218 210 187 181 174 172 193 207 216 228 323 306 299 247 174 177 163 90 204 152 113 161 125 159 121 155 160 165 141 145 151 148 131 147 134 139
199 204 185 212 229 236 238 254 228 210 202 187 170 165 171 190 202 208 217 238 305 276 320 308 178 173 183 189 175 160 143 153 107 144 124 154 162 127 137 148 134 147 135 144 139
197 202 202 148 229 243 244 227 213 209 184 180 171 167 178 190 204 207 215 224 308 283 313 328 193 191 182 210 208 162 129 137 153 147 131 161 109 137 135 139 135 146 141 142 137
200 199 212 215 234 227 237 212 209 202 186 175 161 173 182 195 204 208 213 213 226 296 301 318 332 196 196 194 243 188 161 144 105 159 137 138 123 163 129 139 138 140 142 137 138
201 198 215 215 242 221 210 206 208 197 173 160 164 179 191 202 214 216 217 212 220 204 277 314 318 206 191 199 187 207 177 171 141 124 153 115 130 152 141 142 140 146 129 140 143
216 213 207 218 241 226 212 200 195 186 161 170 180 185 197 220 224 221 221 215 224 234 293 294 310 325 204 194 200 236 192 154 165 137 139 150 137 130 128 129 139 142 165 130 148
207 206 209 249 235 209 204 199 164 161 177 183 185 196 285 189 202 238 231 223 220 225 238 285 305 306 204 192 194 194 230 183 157 163 150 129 141 162 132 148 137 150 152 128 140
201 207 203 200 196 192 172 158 164 179 190 198 232 250 188 190 205 219 217 227 215 220 231 244 279 307 331 200 191 201 223 206 182 139 160 156 154 142 160 133 134 137 151 131 141
187 187 182 177 162 163 171 181 188 201 226 228 216 190 186 202 208 228 227 220 216 221 224 234 251 273 302 289 194 194 101 167 194 156 166 155 155 152 155 157 126 139 141 146 133
179 171 172 179 181 186 199 214 226 228 176 195 191 202 209 197 203 265 240 225 219 218 222 226 235 279 273 306 248 192 185 198 136 190 148 167 139 113 128 165 158 138 121 117 149
193 211 214 206 206 211 202 177 183 201 195 192 199 204 215 189 203 218 245 225 217 216 221 223 239 238 285 275 324 195 194 190 185 215 188 176 168 128 140 150 141 125 162 150 146